UVSQ-SAT (47438 NORAD) Tracking and Keplerian Element Data

This shows tracking and keplerian element data for the satellite.

Feedback or suggestion? Click here.




ElementValue
Catalog47438
NameUVSQ-SAT
Epoch Orbit20707
Epoch Day286.74433385
Epoch Year2024
RAAN350.957
Inclination97.2987
Eccentricity0.0004018
Argument of Perigee223.5279
Mean Anonmoly136.5678
Mean Motion15.908783
Decay Rate0.00675849
L11 47438U 21006AB 24286.74433385 .00675849 18370-3 21799-2 0 9995
L22 47438 97.2987 350.9570 0004018 223.5279 136.5678 15.90878300207075



Live tracking and technical data element details for UVSQ-SAT (NORAD 47438). UVSQ-SAT can be tracked NOW for your location showing map with azimuth and elevation plus other details from your city location.







IsCatalogInMostPopularTable: catalog: 47438, numindb: 135
Update: records affected: 1



GetName: 47438 UVSQ-SAT

Hit Count: updated at: Thu, 23 Jan 2025 16:50:47 GMT